Temp
38 40 39 39 41 42 43 41 42 45 46 46 45 45 46 46 47 47 48 49 49 50 50 51 51 51 52
35 36 36 39 40 39 42 44 42 45 46 45 45 45 46 46 46 47 47 47 48 48 49 49 50 50 51
31 35 35 37 37 39 40 40 44 45 46 46 46 45 45 46 46 46 46 46 47 47 47 48 48 49 49
31 31 33 36 37 35 35 38 39 45 45 45 46 46 45 45 45 45 45 45 46 47 47 47 47 47 48
30 31 31 32 32 35 35 36 37 40 39 40 40 40 41 45 45 45 45 45 45 45 46 46 46 47 47
31 30 31 32 34 34 34 32 30 38 37 37 39 39 41 41 46 46 46 46 45 45 45 45 45 46 46
30 31 30 33 34 33 33 33 32 36 36 33 38 36 40 44 45 46 46 46 45 45 45 45 45 45 45
35 34 35 36 36 35 34 34 35 36 37 29 36 35 38 40 45 45 46 46 46 45 45 45 45 45 45
40 40 40 41 40 36 31 29 29 32 36 34 35 34 36 37 40 43 44 44 45 45 45 45 44 44 43
36 37 38 38 40 37 34 29 29 27 34 30 31 31 27 34 36 38 38 42 44 45 44 45 44 40 39
31 32 33 34 33 34 35 33 29 28 34 32 28 28 28 28 31 34 35 36 37 39 43 44 44 43 38
31 31 31 32 33 34 35 35 35 33 34 33 26 27 26 24 25 30 32 34 35 35 36 40 43 43 44
27 28 30 31 32 31 32 32 31 32 35 32 30 29 28 25 25 27 28 31 33 33 34 35 35 37 35
26 28 28 28 27 28 26 27 26 27 31 31 31 30 26 27 27 26 28 26 29 32 33 34 36 37 36
26 26 26 26 26 27 27 27 24 24 25 28 31 31 30 28 25 27 27 27 30 30 31 30 32 34 35
26 25 24 24 24 25 26 24 23 24 25 26 26 26 27 29 33 27 27 27 29 30 31 28 29 33 36
24 24 24 24 24 23 24 24 23 24 24 26 25 24 21 20 28 37 28 29 29 29 29 29 28 30 33
MSLP
1028.08 1028.06 1028.09 1027.83 1027.45 1027.33 1027.10 1026.91 1026.73 1026.45 1026.28 1026.28 1026.22 1026.08 1025.89 1025.68 1025.46 1025.15 1025.10 1024.98 1024.67 1024.51 1024.45 1024.34 1024.28 1024.10 1023.85
1028.12 1028.08 1028.09 1027.67 1027.23 1027.07 1026.82 1026.52 1026.30 1025.97 1025.83 1025.74 1025.61 1025.50 1025.38 1025.16 1024.88 1024.78 1024.69 1024.64 1024.30 1024.22 1024.21 1024.11 1024.01 1023.87 1023.72
1028.15 1028.08 1027.91 1027.64 1027.01 1026.50 1026.25 1026.17 1025.89 1025.52 1025.32 1025.22 1025.04 1024.95 1024.81 1024.55 1024.35 1024.28 1024.15 1024.05 1023.97 1023.94 1023.96 1023.93 1023.84 1023.72 1023.54
1028.08 1027.74 1027.49 1027.05 1026.65 1026.31 1025.87 1025.67 1025.38 1024.93 1024.84 1024.76 1024.52 1024.35 1024.29 1024.15 1023.97 1023.89 1023.80 1023.62 1023.50 1023.40 1023.40 1023.37 1023.31 1023.15 1023.01
1027.34 1027.12 1026.70 1026.29 1026.05 1025.74 1025.39 1025.23 1025.05 1024.85 1024.54 1024.27 1024.00 1023.82 1023.72 1023.57 1023.36 1023.23 1023.18 1023.11 1023.01 1022.92 1022.81 1022.69 1022.63 1022.49 1022.36
1026.52 1026.28 1025.92 1025.66 1025.34 1025.12 1024.98 1024.78 1024.53 1024.45 1024.27 1023.84 1023.58 1023.39 1023.21 1023.04 1022.83 1022.64 1022.53 1022.53 1022.48 1022.37 1022.23 1022.09 1021.93 1021.83 1021.76
1025.67 1025.65 1025.41 1025.30 1025.03 1024.82 1024.53 1024.27 1024.00 1023.89 1023.85 1023.44 1023.36 1023.01 1022.73 1022.34 1022.01 1021.69 1021.56 1021.65 1021.70 1021.72 1021.61 1021.38 1021.20 1021.03 1020.91
1024.82 1024.71 1024.60 1024.47 1024.33 1024.05 1023.90 1023.62 1023.36 1023.25 1023.27 1022.72 1022.65 1022.18 1021.94 1021.60 1021.36 1021.07 1020.86 1020.81 1020.79 1020.75 1020.68 1020.63 1020.54 1020.35 1020.16
1023.85 1023.61 1023.51 1023.38 1023.32 1023.35 1023.29 1023.21 1022.64 1022.42 1022.39 1022.12 1022.02 1021.69 1021.46 1021.03 1020.82 1020.51 1020.24 1020.03 1019.82 1019.76 1019.65 1019.63 1019.59 1019.43 1019.18
1023.11 1023.04 1022.81 1022.73 1022.47 1022.44 1022.48 1022.35 1022.08 1021.67 1021.87 1021.82 1021.70 1021.64 1020.94 1020.47 1020.03 1019.72 1019.56 1019.51 1019.15 1018.81 1018.74 1018.70 1018.62 1018.56 1018.30
1022.85 1022.67 1022.48 1022.31 1022.22 1022.00 1021.81 1021.76 1021.55 1021.10 1021.27 1021.33 1021.35 1021.19 1020.80 1020.15 1019.71 1019.64 1019.47 1019.14 1018.80 1018.44 1018.12 1017.83 1017.58 1017.54 1017.42
1022.26 1022.01 1021.79 1021.54 1021.32 1021.16 1021.04 1020.92 1020.78 1020.65 1020.71 1020.83 1020.61 1020.63 1020.27 1019.67 1019.44 1019.36 1019.16 1018.80 1018.43 1017.92 1017.52 1017.10 1016.68 1016.43 1016.17
1021.90 1021.66 1021.45 1021.24 1021.04 1021.00 1020.85 1020.70 1020.43 1020.23 1020.13 1020.16 1020.08 1019.95 1019.73 1019.12 1018.77 1018.68 1018.38 1017.98 1017.64 1017.27 1016.84 1016.42 1015.94 1015.62 1015.32
1021.59 1021.38 1021.20 1021.06 1020.91 1020.82 1020.67 1020.47 1020.15 1019.67 1019.39 1019.24 1019.12 1019.06 1018.72 1018.47 1018.19 1017.67 1017.58 1017.18 1016.70 1016.39 1015.91 1015.24 1014.77 1014.46 1014.22
1021.18 1020.96 1020.80 1020.68 1020.50 1020.35 1020.11 1019.86 1019.56 1019.12 1018.65 1018.35 1018.04 1017.79 1017.53 1017.47 1017.09 1016.80 1016.50 1016.08 1015.76 1015.30 1014.84 1014.13 1013.65 1013.43 1013.08
1020.70 1020.51 1020.32 1020.16 1019.96 1019.76 1019.61 1019.40 1019.03 1018.57 1018.10 1017.64 1017.36 1017.03 1016.59 1016.10 1015.98 1015.63 1015.35 1015.07 1014.73 1014.31 1013.91 1013.31 1012.46 1012.34 1011.87
1020.29 1020.08 1019.88 1019.68 1019.49 1019.22 1019.04 1018.76 1018.31 1017.87 1017.41 1017.04 1016.75 1016.40 1015.71 1014.90 1014.55 1014.17 1014.10 1013.92 1013.58 1013.23 1012.91 1012.44 1011.47 1011.17 1011.07
Wind_Speed
6 6 8 8 7 6 6 6 6 14 13 12 13 14 14 14 15 15 16 16 15 14 14 14 14 15 15
7 6 8 8 8 7 6 7 6 12 15 16 17 17 16 16 16 16 17 17 16 16 16 16 16 16 15
7 6 7 7 8 7 7 6 7 14 15 16 17 17 17 17 17 17 17 17 17 17 16 16 16 16 16
7 8 7 8 6 7 7 6 7 6 9 12 16 17 18 19 20 20 20 19 19 19 19 18 18 17 17
7 7 8 7 7 7 6 5 6 6 6 5 5 5 6 12 13 17 18 18 18 19 19 20 20 19 20
8 9 12 9 8 7 7 7 7 4 6 7 4 5 5 5 14 19 20 20 20 21 21 22 22 22 22
10 9 8 7 8 8 8 8 8 5 7 9 6 9 8 10 22 23 20 20 21 22 23 23 24 24 24
11 10 11 10 10 11 12 12 10 7 8 11 8 10 7 7 19 22 22 24 25 25 24 24 24 24 25
22 23 23 24 21 10 10 10 11 8 5 8 7 8 8 10 11 24 26 26 25 24 24 23 23 24 18
10 12 13 12 22 15 9 10 10 10 6 7 7 8 10 8 12 10 4 15 20 18 18 21 23 10 10
6 7 7 8 6 7 9 8 9 10 9 9 7 8 9 11 6 7 9 9 8 11 20 23 23 20 10
8 8 9 9 8 6 8 9 9 12 9 9 6 7 9 10 10 7 8 8 9 9 9 16 23 25 26
8 8 7 7 8 6 8 10 11 11 10 11 10 10 10 12 11 9 12 8 8 10 10 10 10 9 10
7 6 6 6 6 6 7 8 9 9 10 12 13 12 11 11 10 10 9 9 5 8 9 10 10 10 11
7 7 7 7 7 7 8 8 9 9 9 7 9 12 12 13 11 10 9 10 9 10 10 11 10 10 10
7 7 8 7 8 7 7 7 9 9 9 8 6 8 9 11 18 11 10 10 10 10 10 11 11 9 9
7 8 8 8 11 8 8 8 9 9 9 8 8 9 10 11 7 17 9 9 10 8 8 10 13 11 10
Wind_Direction
287 303 298 288 290 285 287 286 282 289 287 285 284 284 284 284 287 292 295 299 301 303 303 304 303 304 305
279 291 288 294 292 291 285 288 283 286 287 287 288 286 284 282 283 283 285 288 293 298 301 301 303 301 299
280 281 280 280 280 275 265 265 278 278 276 277 280 283 283 283 283 282 279 281 282 284 290 292 293 292 294
261 270 267 269 273 277 271 263 263 276 286 285 282 278 281 281 280 282 281 280 280 279 280 282 284 287 289
251 253 260 255 258 268 268 277 279 283 279 281 277 256 257 276 275 277 277 276 278 280 280 282 281 282 285
252 253 252 257 263 266 268 263 268 260 283 286 297 289 288 270 268 270 272 275 278 280 281 281 280 280 279
261 266 293 282 285 279 280 275 271 273 282 277 274 275 268 267 272 275 271 270 270 271 274 277 278 278 278
267 265 266 266 260 261 264 269 268 267 262 268 263 264 265 267 278 282 281 279 276 272 270 270 272 272 273
269 266 265 266 265 264 263 264 261 257 256 268 266 276 284 281 275 275 274 274 274 272 272 273 273 271 270
262 271 282 292 275 267 263 263 273 279 267 270 288 292 283 267 265 266 300 302 300 280 263 273 271 270 266
288 269 251 247 249 255 259 256 263 266 269 275 273 275 265 273 269 294 294 287 276 275 277 275 270 265 261
269 263 263 263 266 262 257 260 260 266 273 271 269 267 274 278 277 279 268 269 271 270 270 270 270 267 264
272 273 275 279 283 285 283 280 277 273 270 266 261 266 264 268 275 267 273 266 264 267 268 265 262 255 260
280 282 284 282 276 272 273 268 265 265 255 249 252 253 258 257 263 270 264 263 266 267 267 268 267 259 255
269 273 273 274 271 267 263 264 261 262 264 255 250 249 248 253 260 258 265 266 266 267 270 271 266 263 259
264 264 263 264 270 271 271 270 271 271 268 266 266 272 264 250 241 257 257 259 262 264 262 265 273 270 268
264 265 268 267 274 272 270 269 269 269 267 266 264 263 271 273 265 252 249 256 262 258 254 256 267 270 268